George Downer Airport

Jump to: basic info | weather | frequencies | runways | comments

Related pages: nearby airports | nearby navaids | notams | map

Basic information (top)

Codes: AIV KAIV
Location: lon 33.106499, lat -88.197800, elev 150 ft / 46 m msl
Status: small_airport

Weather (top)

Current conditions for Golden Triangle Regional Airport 29nm (53km) NW (rec'd 2014/08/31 01:55Z):

KGTR 310155Z AUTO 00000KT 10SM CLR 22/20 A3006 RMK AO1

Airport forecast for Golden Triangle Regional Airport 29nm (53km) NW (rec'd 2014/08/30 00:51Z):

TAF KGTR 302348Z 3100/3124 18006KT 6SM -SHRA BR SCT010 BKN020 OVC050 
     FM310600 17008KT 5SM -TSRA BKN010 OVC020CB 
     FM311100 17008KT 5SM BR VCSH BKN009 OVC025 
     FM311600 20009KT P6SM VCSH BKN025 BKN050 
     FM311800 20011KT P6SM SCT025 BKN050

Frequencies (top)

Verify before use: may be inaccurate or out of date.

UNIC: 122.8 MHz (CTAF/UNICOM)

Runways (top)

06/24: 4,970 x 80 ft (1,515 x 24 m) — paved — lighted — threshold 06 displaced 200 ft (61 m) — threshold 24 displaced 615 ft (187 m)

Latest comments (top)

No comments yet for George Downer Airport

More... (top)

See also NOTAMs and nearby airports and navaids, or visit the George Downer Airport page at the main OurAirports website..